CCA2561 ZBAD-ZUCK

Flight info

Callsign CCA2561
Flight time N/A
Altitude 34100
Route K0896S1220 PEGSO7F PEGSO B215 GODON W43 SAVPA DCT VINEX VINE1J
Aircraft B772/H-SDE2E3FGHIJ5LORVWXY/LB1D1

Departure

Time 2026-05-05 07:23
Airport Beijing Daxing International Airport (ZBAD)

Arrival

Time N/A
Airport Chongqing Jiangbei International Airport (ZUCK)
Time Latitude Longitude Altitude Speed Heading
2026-05-05 07:15 39.51275 116.40366 97 ft 0 kts 112°
2026-05-05 07:15 39.51277 116.40358 97 ft 0 kts 112°
2026-05-05 07:16 39.51282 116.40342 97 ft 2 kts 105°
2026-05-05 07:16 39.51285 116.40323 97 ft 2 kts 95°
2026-05-05 07:16 39.51286 116.40304 97 ft 2 kts 86°
2026-05-05 07:16 39.51284 116.40285 97 ft 2 kts 77°
2026-05-05 07:17 39.51279 116.40266 97 ft 2 kts 68°
2026-05-05 07:17 39.51273 116.40248 97 ft 2 kts 59°
2026-05-05 07:17 39.51265 116.40233 97 ft 2 kts 50°
2026-05-05 07:17 39.51254 116.40218 97 ft 2 kts 40°
2026-05-05 07:18 39.51242 116.40207 97 ft 2 kts 31°
2026-05-05 07:18 39.51229 116.40198 97 ft 2 kts 22°
2026-05-05 07:18 39.51221 116.40194 97 ft 1 kts 17°
2026-05-05 07:20 39.51234 116.40199 97 ft 5 kts 18°
2026-05-05 07:20 39.51295 116.40214 97 ft 12 kts 352°
2026-05-05 07:21 39.51359 116.40115 97 ft 17 kts 285°
2026-05-05 07:21 39.51439 116.40000 97 ft 20 kts 356°
2026-05-05 07:21 39.51600 116.39980 97 ft 25 kts 354°
2026-05-05 07:21 39.51777 116.39938 97 ft 24 kts 318°
2026-05-05 07:22 39.51786 116.39721 97 ft 26 kts 249°
2026-05-05 07:22 39.51680 116.39636 97 ft 0 kts 173°
2026-05-05 07:22 39.51675 116.39638 97 ft 4 kts 173°
2026-05-05 07:22 39.51350 116.39678 97 ft 104 kts 173°
2026-05-05 07:23 39.50312 116.39836 388 ft 180 kts 176°
2026-05-05 07:23 39.49045 116.40040 1594 ft 197 kts 175°
2026-05-05 07:23 39.47703 116.40254 3064 ft 210 kts 176°
2026-05-05 07:23 39.46233 116.40455 4420 ft 229 kts 176°
2026-05-05 07:24 39.44510 116.40704 5172 ft 276 kts 175°
2026-05-05 07:24 39.42456 116.41013 5757 ft 305 kts 174°
2026-05-05 07:24 39.40336 116.41349 6191 ft 315 kts 174°
2026-05-05 07:24 39.38092 116.41700 6662 ft 336 kts 176°
2026-05-05 07:25 39.35726 116.41489 7170 ft 351 kts 195°
2026-05-05 07:25 39.33454 116.40256 7679 ft 362 kts 214°
2026-05-05 07:25 39.31562 116.38124 8178 ft 363 kts 232°
2026-05-05 07:25 39.30278 116.35330 8671 ft 360 kts 249°
2026-05-05 07:26 39.29332 116.32326 9175 ft 364 kts 250°
2026-05-05 07:26 39.28296 116.29319 9675 ft 369 kts 248°
2026-05-05 07:26 39.27163 116.26373 10172 ft 372 kts 246°
2026-05-05 07:26 39.25961 116.23391 10677 ft 376 kts 245°
2026-05-05 07:27 39.24730 116.20423 11174 ft 379 kts 245°
2026-05-05 07:27 39.23466 116.17416 11680 ft 382 kts 245°
2026-05-05 07:27 39.22187 116.14397 12173 ft 385 kts 245°
2026-05-05 07:27 39.20902 116.11378 12676 ft 388 kts 245°
2026-05-05 07:28 39.19588 116.08305 13190 ft 392 kts 245°
2026-05-05 07:28 39.18285 116.05260 13691 ft 395 kts 245°
2026-05-05 07:28 39.16948 116.02146 14204 ft 397 kts 245°
2026-05-05 07:28 39.15600 115.99012 14712 ft 400 kts 245°
2026-05-05 07:29 39.14250 115.95882 15212 ft 403 kts 244°
2026-05-05 07:29 39.12883 115.92724 15721 ft 405 kts 245°
2026-05-05 07:29 39.11521 115.89582 16224 ft 409 kts 245°
2026-05-05 07:29 39.10128 115.86374 16742 ft 410 kts 245°
2026-05-05 07:30 39.08731 115.83158 17254 ft 413 kts 245°
2026-05-05 07:30 39.05915 115.76685 18274 ft 418 kts 244°
2026-05-05 07:30 39.04490 115.73415 18781 ft 421 kts 244°
2026-05-05 07:31 39.03051 115.70116 19302 ft 424 kts 244°
2026-05-05 07:31 39.01604 115.66803 19825 ft 427 kts 244°
2026-05-05 07:31 39.00147 115.63469 20345 ft 430 kts 244°
2026-05-05 07:31 38.98677 115.60112 20873 ft 433 kts 244°
2026-05-05 07:32 38.97211 115.56765 21392 ft 435 kts 244°
2026-05-05 07:32 38.95720 115.53367 21918 ft 438 kts 244°
2026-05-05 07:32 38.94221 115.49951 22442 ft 440 kts 244°
2026-05-05 07:32 38.92894 115.46445 22971 ft 441 kts 250°
2026-05-05 07:33 38.91666 115.42834 23500 ft 444 kts 250°
2026-05-05 07:33 38.90427 115.39201 24036 ft 446 kts 250°
2026-05-05 07:33 38.89172 115.35551 24567 ft 449 kts 250°
2026-05-05 07:33 38.87896 115.31868 25106 ft 452 kts 249°
2026-05-05 07:34 38.86624 115.28218 25629 ft 455 kts 249°
2026-05-05 07:34 38.85315 115.24471 26161 ft 458 kts 249°
2026-05-05 07:34 38.84016 115.20770 26686 ft 460 kts 249°
2026-05-05 07:34 38.82697 115.17020 27215 ft 464 kts 249°
2026-05-05 07:35 38.81358 115.13223 27749 ft 466 kts 249°
2026-05-05 07:35 38.80020 115.09436 28275 ft 470 kts 249°
2026-05-05 07:35 38.78684 115.05659 28800 ft 474 kts 249°
2026-05-05 07:35 38.77307 115.01772 29336 ft 477 kts 249°
2026-05-05 07:36 38.75925 114.97881 29869 ft 480 kts 250°
2026-05-05 07:36 38.74529 114.93949 30395 ft 483 kts 250°
2026-05-05 07:36 38.73154 114.90083 30893 ft 481 kts 250°
2026-05-05 07:36 38.71757 114.86157 31397 ft 481 kts 250°
2026-05-05 07:37 38.70345 114.82196 31906 ft 480 kts 250°
2026-05-05 07:37 38.68949 114.78285 32414 ft 480 kts 250°
2026-05-05 07:37 38.67569 114.74424 32918 ft 478 kts 250°
2026-05-05 07:37 38.66174 114.70527 33429 ft 476 kts 250°
2026-05-05 07:38 38.64789 114.66660 33929 ft 478 kts 250°
2026-05-05 07:38 38.63386 114.62747 34105 ft 481 kts 250°
2026-05-05 07:38 38.60603 114.55043 34112 ft 476 kts 250°
2026-05-05 07:39 38.57754 114.47185 34116 ft 496 kts 250°
2026-05-05 07:39 38.54840 114.39140 34115 ft 501 kts 250°
2026-05-05 07:40 38.51922 114.31110 34112 ft 500 kts 250°
2026-05-05 07:40 38.48980 114.23037 34116 ft 500 kts 249°
2026-05-05 07:41 38.46029 114.14960 34121 ft 500 kts 249°
2026-05-05 07:41 38.43086 114.06924 34122 ft 503 kts 249°
2026-05-05 07:42 38.40118 113.98834 34125 ft 502 kts 249°
2026-05-05 07:42 38.37164 113.90799 34134 ft 501 kts 249°
2026-05-05 07:43 38.34211 113.82784 34139 ft 500 kts 249°
2026-05-05 07:43 38.31184 113.74706 34143 ft 501 kts 249°
2026-05-05 07:44 38.28170 113.66730 34155 ft 500 kts 249°
2026-05-05 07:44 38.25129 113.58695 34166 ft 501 kts 249°
2026-05-05 07:45 38.22103 113.50719 34172 ft 501 kts 249°
2026-05-05 07:45 38.19060 113.42718 34188 ft 500 kts 249°
2026-05-05 07:46 38.16014 113.34724 34214 ft 500 kts 249°
2026-05-05 07:46 38.13041 113.26739 34219 ft 502 kts 249°
2026-05-05 07:47 38.10072 113.18776 34227 ft 501 kts 249°
2026-05-05 07:47 38.07075 113.10769 34223 ft 499 kts 249°
2026-05-05 07:48 38.04092 113.02815 34217 ft 500 kts 249°
2026-05-05 07:48 38.01102 112.94870 34211 ft 501 kts 249°
2026-05-05 07:49 37.98085 112.86875 34213 ft 500 kts 248°
2026-05-05 07:49 37.95069 112.78902 34207 ft 502 kts 248°
2026-05-05 07:50 37.92061 112.70973 34189 ft 502 kts 248°
2026-05-05 07:50 37.89040 112.63030 34181 ft 502 kts 248°